This is the latest recevied weather packets stored in our database for station/object KD4EG. If no packets are shown the sender has not sent any weather packets the latest 10 day(s).
| Time | Temp. | Humidity | Pressure | Rain* | Wind** | Luminosity | Snow |
|---|---|---|---|---|---|---|---|
| 1777834023 | 16.67° C | 29% | 1019.3 hPa | 0 mm | - | 626 W/m² | - |
| 1777833720 | 16.67° C | 28% | 1019.4 hPa | 0 mm | - | 651 W/m² | - |
| 1777833416 | 17.22° C | 31% | 1019.6 hPa | 0 mm | - | 670 W/m² | - |
| 1777833114 | 16.11° C | 30% | 1019.7 hPa | 0 mm | - | 656 W/m² | - |
| 1777832812 | 16.11° C | 30% | 1019.7 hPa | 0 mm | - | 644 W/m² | - |
| 1777832510 | 16.11° C | 31% | 1019.9 hPa | 0 mm | - | 620 W/m² | - |
| 1777832206 | 16.11° C | 32% | 1019.8 hPa | 0 mm | - | 614 W/m² | - |
| 1777831903 | 15.56° C | 33% | 1019.8 hPa | 0 mm | - | 626 W/m² | - |
| 1777831600 | 16.11° C | 33% | 1020 hPa | 0 mm | - | 674 W/m² | - |
| 1777831298 | 15.56° C | 34% | 1020.1 hPa | 0 mm | - | 711 W/m² | - |
| 1777830995 | 16.11° C | 33% | 1020.1 hPa | 0 mm | - | 729 W/m² | - |
| 1777830692 | 15.56° C | 34% | 1020 hPa | 0 mm | - | 718 W/m² | - |
| 1777830389 | 15° C | 34% | 1020.1 hPa | 0 mm | - | 711 W/m² | - |
| 1777830086 | 15.56° C | 36% | 1020.1 hPa | 0 mm | - | 693 W/m² | - |
| 1777829781 | 15.56° C | 36% | 1020.2 hPa | 0 mm | - | 678 W/m² | - |
| 1777829477 | 14.44° C | 35% | 1020.2 hPa | 0 mm | - | 649 W/m² | - |
| 1777829174 | 14.44° C | 35% | 1020.5 hPa | 0 mm | - | 629 W/m² | - |
| 1777828872 | 15° C | 35% | 1020.6 hPa | 0 mm | - | 639 W/m² | - |
| 1777828569 | 14.44° C | 35% | 1020.7 hPa | 0 mm | - | 663 W/m² | - |
| 1777828266 | 14.44° C | 38% | 1020.7 hPa | 0 mm | - | 695 W/m² | - |
| 1777827963 | 13.33° C | 40% | 1020.9 hPa | 0 mm | - | 694 W/m² | - |
| 1777827659 | 13.89° C | 37% | 1020.8 hPa | 0 mm | - | 704 W/m² | - |
| 1777827356 | 13.89° C | 36% | 1020.9 hPa | 0 mm | - | 700 W/m² | - |
| 1777827052 | 13.89° C | 37% | 1021 hPa | 0 mm | - | 678 W/m² | - |
| 1777826750 | 13.89° C | 38% | 1021.1 hPa | 0 mm | - | 659 W/m² | - |
* Rain latest hour (hover to see other rain measurements)
** Current wind speed in m/s (hover to see current wind gust speed)